Regional Weather Roundup
Issued by NWS Bismarck, ND

Home | Current Version | Previous Version | Text Only | Print | Product List | Glossary On
Versions: 1 2 3 4 5 6 7 8 9 10 11 12 13 14 15 16 17 18 19 20 21 22 23 24 25 26 27 28 29 30 31 32 33 34 35 36 37 38 39 40 41 42 43 44 45 46 47 48 49 50
000
ASUS43 KBIS 190210
RWRBIS

NWR BROADCAST TEXT
NATIONAL WEATHER SERVICE BISMARCK ND
800 PM CST THU JAN 18 2018

NOTE: "FAIR" INDICATES FEW OR NO CLOUDS BELOW 12,000 FEET WITH NO
SIGNIFICANT WEATHER AND/OR OBSTRUCTIONS TO VISIBILITY.


CITY           SKY/WX    TMP DP  RH WIND       PRES   REMARKS
WILLISTON      FAIR      51  30  44 S5        29.62F
MINOT          FAIR      42  29  59 SW16G22   29.55F
MINOT AFB      CLOUDY    39  29  68 W12       29.54F
BISMARCK       FAIR      30  25  81 CALM      29.66F
DICKINSON      FAIR      40  28  62 W18       29.64F
GARRISON         N/A     31  25  78 SW3       29.61F
HETTINGER ARPT CLOUDY    37  27  67 SW6       29.70F
JAMESTOWN      FAIR      35  26  69 SW16      29.61F
CARRINGTON     FAIR      34  27  75 W12       29.62F
HAZEN          FAIR      36  30  80 SW6       29.65S
LINTON           N/A     32  25  74 CALM      29.69F
MANDAN         FAIR      36  28  75 S8        29.64F
OAKES            N/A     32  28  86 S13       29.67F
RUGBY          FAIR      30  25  80 SW13      29.56F
STANLEY        FAIR      37  32  81 SW16G22   29.59F
TIOGA          FAIR      37  34  87 SW18      29.58F
WATFORD CITY   FAIR      37  30  75 SW12      29.62F
$$

CITY           SKY/WX    TMP DP  RH WIND       PRES   REMARKS
GRAND FORKS    MOCLDY    26  22  84 S12       29.61F WCI  16
GRAND FORKS AF FAIR      27  22  81 S9        29.60F WCI  17
DEVILS LAKE    FAIR      30  24  78 SW13      29.57F WCI  20
FARGO          FAIR      28  24  85 S10       29.66F WCI  19
CANDO          FAIR      27  25  93 SW6       29.56F WCI  20
CAVALIER         N/A     25  21  86 S7        29.56F WCI  17
GRAFTON        FAIR      25  21  86 S9        29.61F WCI  15
GWINNER          N/A     32  28  86 SW13      29.67F
LANGDON        FAIR      27  25  93 SW17      29.54F WCI  14
ROLLA          FAIR      32  27  80 SW15      29.52F
WALHALLA       FAIR      28  23  80 SE8       29.54F
$$

CITY           SKY/WX    TMP DP  RH WIND       PRES   REMARKS
ABERDEEN       MOCLDY    31  26  82 S8        29.71F
MOBRIDGE       CLOUDY    33  26  75 SE8       29.67F
BUFFALO          N/A     41  28  60 W3        29.65F
RAPID CITY     CLOUDY    36  26  67 NW5       29.74S
GLASGOW        CLOUDY    34  29  82 CALM      29.61F
SIDNEY         CLOUDY    34  28  79 SW8       29.65F
WOLF POINT     CLOUDY    34  25  69 SW7       29.63F
GLENDIVE       CLOUDY    32  27  81 S12       29.69S
MILES CITY     CLOUDY    34  26  72 S9        29.71R
BAKER          CLOUDY    37  29  72 NW5       29.71R
$$

CITY           SKY/WX    TMP DP  RH WIND       PRES   REMARKS
BILLINGS       CLOUDY    44  26  49 W14       29.68F
GREAT FALLS    CLOUDY    40  32  73 S13       29.69S
REGINA         PTCLDY    37  30  75 SW17G24   29.44F
ESTEVAN        MOCLDY    36  28  75 W13G22    29.52R
$$




USA.gov is the U.S. government's official web portal to all federal, state and local government web resources and services.